Time,TemperatureF,DewpointF,PressureIn,WindDirection,WindDirectionDegrees,WindSpeedMPH,WindSpeedGustMPH,Humidity,HourlyPrecipIn,Conditions,Clouds,dailyrainin,SoftwareType,DateUTC
2013-06-26 00:02:00,80.0,66.0,-100.00,SSE,167,4.0,4.0,62,0.00,,,0.00,,2013-06-26 05:02:00,
2013-06-26 00:11:00,79.0,65.0,-100.00,SSE,158,3.0,3.0,63,0.00,,,0.00,,2013-06-26 05:11:00,
2013-06-26 00:22:00,79.0,65.0,-100.00,SE,139,3.0,3.0,63,0.00,,,0.00,,2013-06-26 05:22:00,
2013-06-26 00:34:00,79.0,66.0,-100.00,ESE,120,4.0,4.0,64,0.00,,,0.00,,2013-06-26 05:34:00,
2013-06-26 00:43:00,79.0,66.0,-100.00,ESE,120,4.0,4.0,64,0.00,,,0.00,,2013-06-26 05:43:00,
2013-06-26 00:52:00,79.0,66.0,-100.00,South,176,5.0,5.0,64,0.00,,,0.00,,2013-06-26 05:52:00,
2013-06-26 01:01:00,79.0,66.0,-100.00,SSE,165,5.0,5.0,65,0.00,,,0.00,,2013-06-26 06:01:00,
2013-06-26 01:11:00,78.0,65.0,-100.00,SSE,167,4.0,4.0,65,0.00,,,0.00,,2013-06-26 06:11:00,
2013-06-26 01:22:00,78.0,66.0,-100.00,SE,134,6.0,7.0,66,0.00,,,0.00,,2013-06-26 06:22:00,
2013-06-26 01:34:00,78.0,65.0,-100.00,SSE,166,8.0,8.0,65,0.00,,,0.00,,2013-06-26 06:34:00,
2013-06-26 01:43:00,79.0,66.0,-100.00,SSE,156,7.0,8.0,65,0.00,,,0.00,,2013-06-26 06:43:00,
2013-06-26 01:53:00,79.0,66.0,-100.00,SE,131,7.0,7.0,65,0.00,,,0.00,,2013-06-26 06:53:00,
2013-06-26 02:01:00,79.0,66.0,-100.00,SSE,163,6.0,7.0,65,0.00,,,0.00,,2013-06-26 07:01:00,
2013-06-26 02:11:00,79.0,67.0,-100.00,SSE,159,5.0,5.0,66,0.00,,,0.00,,2013-06-26 07:11:00,
2013-06-26 02:22:00,79.0,67.0,-100.00,SSE,163,5.0,8.0,67,0.00,,,0.00,,2013-06-26 07:22:00,
2013-06-26 02:33:00,79.0,68.0,-100.00,South,179,7.0,7.0,68,0.00,,,0.00,,2013-06-26 07:33:00,
2013-06-26 02:43:00,80.0,68.0,-100.00,South,177,9.0,9.0,68,0.00,,,0.00,,2013-06-26 07:43:00,
2013-06-26 02:53:00,80.0,69.0,-100.00,SSE,162,7.0,10.0,69,0.00,,,0.00,,2013-06-26 07:53:00,
2013-06-26 03:01:00,80.0,69.0,-100.00,SSW,204,8.0,8.0,70,0.00,,,0.00,,2013-06-26 08:01:00,
2013-06-26 03:11:00,79.0,68.0,-100.00,SSW,210,7.0,7.0,70,0.00,,,0.00,,2013-06-26 08:11:00,
2013-06-26 03:22:00,79.0,69.0,-100.00,SSE,163,7.0,9.0,71,0.00,,,0.00,,2013-06-26 08:22:00,
2013-06-26 03:33:00,79.0,69.0,-100.00,SE,145,8.0,8.0,72,0.00,,,0.00,,2013-06-26 08:33:00,
2013-06-26 03:42:00,79.0,70.0,-100.00,South,173,9.0,9.0,73,0.00,,,0.00,,2013-06-26 08:42:00,
2013-06-26 03:52:00,79.0,70.0,-100.00,South,173,6.0,7.0,74,0.00,,,0.00,,2013-06-26 08:52:00,
2013-06-26 04:01:00,78.0,69.0,-100.00,ESE,122,5.0,5.0,75,0.00,,,0.00,,2013-06-26 09:01:00,
2013-06-26 04:11:00,78.0,69.0,-100.00,SSW,205,6.0,6.0,75,0.00,,,0.00,,2013-06-26 09:11:00,
2013-06-26 04:22:00,78.0,70.0,-100.00,South,172,5.0,5.0,76,0.00,,,0.00,,2013-06-26 09:22:00,
2013-06-26 04:32:00,77.0,69.0,-100.00,South,186,4.0,4.0,76,0.00,,,0.00,,2013-06-26 09:32:00,
2013-06-26 04:43:00,77.0,69.0,-100.00,SSW,203,4.0,4.0,77,0.00,,,0.00,,2013-06-26 09:43:00,
2013-06-26 04:53:00,77.0,70.0,-100.00,South,179,5.0,5.0,78,0.00,,,0.00,,2013-06-26 09:53:00,
2013-06-26 05:01:00,76.0,69.0,-100.00,SSW,201,5.0,5.0,79,0.00,,,0.00,,2013-06-26 10:01:00,
2013-06-26 05:12:00,76.0,69.0,-100.00,South,187,3.0,3.0,80,0.00,,,0.00,,2013-06-26 10:12:00,
2013-06-26 05:22:00,76.0,69.0,-100.00,SSW,210,4.0,5.0,80,0.00,,,0.00,,2013-06-26 10:22:00,
2013-06-26 05:34:00,76.0,70.0,-100.00,SE,125,4.0,4.0,81,0.00,,,0.00,,2013-06-26 10:34:00,
2013-06-26 05:43:00,76.0,70.0,-100.00,SSW,210,4.0,6.0,82,0.00,,,0.00,,2013-06-26 10:43:00,
2013-06-26 05:53:00,76.0,70.0,-100.00,South,177,3.0,4.0,82,0.00,,,0.00,,2013-06-26 10:53:00,
2013-06-26 06:02:00,75.0,69.0,-100.00,South,188,5.0,5.0,83,0.00,,,0.00,,2013-06-26 11:02:00,
2013-06-26 06:11:00,75.0,69.0,-100.00,South,188,5.0,5.0,83,0.00,,,0.00,,2013-06-26 11:11:00,
2013-06-26 06:22:00,75.0,69.0,-100.00,SSE,153,5.0,5.0,83,0.00,,,0.00,,2013-06-26 11:22:00,
2013-06-26 06:32:00,75.0,70.0,-100.00,SSW,198,5.0,5.0,84,0.00,,,0.00,,2013-06-26 11:32:00,
2013-06-26 06:44:00,75.0,70.0,-100.00,South,177,3.0,4.0,84,0.00,,,0.00,,2013-06-26 11:44:00,
2013-06-26 06:52:00,75.0,70.0,-100.00,SSE,167,4.0,4.0,85,0.00,,,0.00,,2013-06-26 11:52:00,
2013-06-26 07:02:00,75.0,70.0,-100.00,South,170,4.0,5.0,85,0.00,,,0.00,,2013-06-26 12:02:00,
2013-06-26 07:12:00,75.0,70.0,-100.00,SSW,201,4.0,7.0,85,0.00,,,0.00,,2013-06-26 12:12:00,
2013-06-26 07:22:00,75.0,70.0,-100.00,SW,226,5.0,5.0,85,0.00,,,0.00,,2013-06-26 12:22:00,
2013-06-26 07:33:00,75.0,71.0,-100.00,SSW,194,3.0,3.0,86,0.00,,,0.00,,2013-06-26 12:33:00,
2013-06-26 07:42:00,75.0,71.0,-100.00,SE,146,4.0,4.0,86,0.00,,,0.00,,2013-06-26 12:42:00,
2013-06-26 07:52:00,76.0,71.0,-100.00,South,176,4.0,4.0,84,0.00,,,0.00,,2013-06-26 12:52:00,
2013-06-26 08:02:00,78.0,72.0,-100.00,South,191,3.0,5.0,81,0.00,,,0.00,,2013-06-26 13:02:00,
2013-06-26 08:34:00,82.0,72.0,-100.00,SSW,195,7.0,11.0,71,0.00,,,0.00,,2013-06-26 13:34:00,
2013-06-26 08:42:00,82.0,72.0,-100.00,SE,143,6.0,6.0,72,0.00,,,0.00,,2013-06-26 13:42:00,
2013-06-26 08:53:00,82.0,72.0,-100.00,SE,146,9.0,9.0,73,0.00,,,0.00,,2013-06-26 13:53:00,
2013-06-26 18:52:00,106.0,65.0,-100.00,SSE,165,12.0,13.0,27,0.00,,,0.00,,2013-06-26 23:52:00,
2013-06-26 19:01:00,104.0,64.0,-100.00,ESE,110,12.0,12.0,28,0.00,,,0.00,,2013-06-27 00:01:00,
2013-06-26 19:11:00,103.0,65.0,-100.00,SSE,152,11.0,11.0,30,0.00,,,0.00,,2013-06-27 00:11:00,
2013-06-26 19:22:00,103.0,66.0,-100.00,ESE,108,9.0,9.0,31,0.00,,,0.00,,2013-06-27 00:22:00,
2013-06-26 19:33:00,101.0,65.0,-100.00,SSE,153,12.0,14.0,31,0.00,,,0.00,,2013-06-27 00:33:00,
2013-06-26 19:42:00,101.0,65.0,-100.00,SE,142,13.0,14.0,31,0.00,,,0.00,,2013-06-27 00:42:00,
2013-06-26 19:53:00,101.0,65.0,-100.00,SE,142,13.0,14.0,31,0.00,,,0.00,,2013-06-27 00:53:00,
2013-06-26 20:01:00,100.0,64.0,-100.00,SE,136,10.0,10.0,31,0.00,,,0.00,,2013-06-27 01:01:00,
2013-06-26 20:11:00,99.0,63.0,-100.00,South,170,11.0,11.0,31,0.00,,,0.00,,2013-06-27 01:11:00,
2013-06-26 20:21:00,99.0,63.0,-100.00,SSE,158,10.0,12.0,31,0.00,,,0.00,,2013-06-27 01:21:00,
2013-06-26 20:32:00,97.0,66.0,-100.00,SSE,163,10.0,10.0,36,0.00,,,0.00,,2013-06-27 01:32:00,
2013-06-26 20:42:00,95.0,65.0,-100.00,South,170,11.0,12.0,38,0.00,,,0.00,,2013-06-27 01:42:00,
2013-06-26 20:53:00,95.0,66.0,-100.00,SSE,163,12.0,12.0,39,0.00,,,0.00,,2013-06-27 01:53:00,
2013-06-26 21:01:00,93.0,66.0,-100.00,SSE,159,10.0,10.0,41,0.00,,,0.00,,2013-06-27 02:01:00,
2013-06-26 21:11:00,93.0,66.0,-100.00,SSE,159,10.0,10.0,41,0.00,,,0.00,,2013-06-27 02:11:00,
2013-06-26 21:22:00,92.0,65.0,-100.00,South,169,8.0,10.0,41,0.00,,,0.00,,2013-06-27 02:22:00,
2013-06-26 21:32:00,92.0,66.0,-100.00,SSE,153,9.0,9.0,42,0.00,,,0.00,,2013-06-27 02:32:00,
2013-06-26 21:42:00,91.0,65.0,-100.00,SE,141,9.0,9.0,42,0.00,,,0.00,,2013-06-27 02:42:00,
2013-06-26 21:52:00,88.0,65.0,-100.00,SSE,163,8.0,9.0,47,0.00,,,0.00,,2013-06-27 02:52:00,
2013-06-26 22:02:00,87.0,65.0,-100.00,SSE,162,7.0,7.0,48,0.00,,,0.00,,2013-06-27 03:02:00,
2013-06-26 22:11:00,87.0,65.0,-100.00,SSE,166,7.0,7.0,49,0.00,,,0.00,,2013-06-27 03:11:00,
2013-06-26 22:21:00,87.0,65.0,-100.00,South,190,6.0,9.0,49,0.00,,,0.00,,2013-06-27 03:21:00,
2013-06-26 22:32:00,87.0,65.0,-100.00,South,190,6.0,9.0,49,0.00,,,0.00,,2013-06-27 03:32:00,
2013-06-26 22:42:00,85.0,65.0,-100.00,SSE,155,6.0,6.0,52,0.00,,,0.00,,2013-06-27 03:42:00,
2013-06-26 22:52:00,85.0,66.0,-100.00,South,177,7.0,7.0,53,0.00,,,0.00,,2013-06-27 03:52:00,
2013-06-26 23:01:00,85.0,66.0,-100.00,South,177,7.0,7.0,53,0.00,,,0.00,,2013-06-27 04:01:00,
2013-06-26 23:11:00,85.0,66.0,-100.00,South,177,7.0,7.0,53,0.00,,,0.00,,2013-06-27 04:11:00,
2013-06-26 23:32:00,84.0,66.0,-100.00,South,173,6.0,8.0,54,0.00,,,0.00,,2013-06-27 04:32:00,
2013-06-26 23:42:00,81.0,65.0,-100.00,SSE,148,2.0,2.0,59,0.00,,,0.00,,2013-06-27 04:42:00,
2013-06-26 23:52:00,81.0,66.0,-100.00,South,188,3.0,3.0,60,0.00,,,0.00,,2013-06-27 04:52:00,